Theta_e
324 323 323 323 324 325 324 325 326 325 324 324 325 325 325 326 326 327 326 326 326 326 326 326 327 328 328 329 329 329 329 329 329 329 330 330 330 329 329 329 329 330 329 328 327 327 327 327 325 326 327 328 327 327 327 327 328 327 327 327 327 327 327
325 323 322 323 324 323 323 324 325 325 324 325 325 325 324 324 324 325 325 325 326 326 326 325 326 327 329 329 329 329 329 328 328 329 329 329 328 329 329 329 329 329 329 328 327 326 325 326 326 326 327 327 327 327 327 327 327 326 326 326 326 326 325
325 324 323 323 322 323 324 325 325 325 324 324 324 325 325 323 324 324 323 324 325 325 324 325 326 327 329 329 329 329 329 328 327 328 328 328 328 328 328 328 328 328 327 327 327 326 325 325 326 326 326 326 327 327 327 326 325 324 325 325 325 324 321
324 323 323 323 323 324 325 325 325 325 325 324 324 324 324 324 323 323 323 323 325 325 325 325 325 326 327 327 327 328 328 328 328 328 327 327 327 326 326 326 326 326 326 327 327 326 325 324 325 326 325 326 326 327 326 324 323 322 322 322 322 319 316
323 322 322 323 324 325 323 324 325 325 324 324 323 323 323 323 322 322 322 322 322 323 323 323 324 325 325 325 326 326 327 327 326 326 326 326 326 326 326 326 325 326 325 326 327 327 325 324 325 325 325 326 326 326 325 325 324 321 319 318 318 315 313
322 322 323 323 324 324 323 325 325 324 323 322 322 322 321 321 321 323 323 321 320 320 320 321 322 323 322 323 324 324 324 323 321 320 320 321 321 322 323 323 325 325 325 325 326 326 325 325 325 324 324 324 324 324 325 325 323 320 316 317 317 315 313
322 322 322 323 324 323 324 326 325 324 322 321 322 323 321 320 320 321 322 321 320 319 319 320 320 321 320 320 321 321 321 319 317 316 316 316 316 316 317 318 321 323 324 324 324 325 325 325 325 323 321 322 323 323 323 322 320 318 316 316 317 317 314
322 322 323 323 323 324 325 325 325 323 321 321 322 322 321 320 320 320 320 321 320 318 318 318 318 318 317 316 317 318 318 317 316 315 315 315 315 315 315 315 316 317 319 321 321 322 324 324 323 321 319 320 321 318 316 317 318 317 316 316 316 315 313
322 323 323 323 324 323 324 325 324 322 320 320 320 319 319 319 318 318 319 319 319 317 317 316 316 316 316 316 315 315 316 316 316 316 316 316 315 315 314 314 315 315 315 315 315 316 320 321 320 320 318 319 317 314 314 315 315 315 316 316 316 313 310
323 324 324 324 323 322 323 324 323 321 319 318 318 317 316 316 317 318 318 318 318 317 316 316 315 315 316 316 315 316 316 316 316 316 316 316 315 314 314 313 313 315 315 314 313 313 315 317 318 318 319 318 314 314 316 316 313 314 315 315 314 313 311
322 324 324 323 322 322 323 324 322 320 319 318 317 316 315 315 316 317 317 317 317 316 316 314 314 314 314 315 315 315 315 314 314 315 315 315 315 315 314 313 313 313 314 314 313 313 313 315 316 316 318 316 313 313 314 314 313 312 313 313 312 312 311
323 323 323 323 322 322 323 323 322 321 319 317 316 315 316 315 315 315 316 316 316 316 315 315 314 314 315 315 315 315 315 314 314 315 315 315 316 316 315 314 313 313 313 313 313 313 313 314 315 316 317 315 313 312 310 311 312 310 310 311 310 309 309
323 323 322 322 321 322 322 322 321 321 319 317 316 316 316 315 315 316 316 316 316 316 315 314 315 315 315 315 315 315 315 315 315 315 314 314 314 315 315 315 314 313 313 312 312 313 313 314 314 315 316 315 312 311 309 309 310 308 307 308 309 308 308
323 322 322 321 321 321 321 322 321 320 319 317 317 317 317 316 317 316 316 316 316 315 315 315 316 315 315 314 315 315 315 314 315 315 314 314 314 314 314 314 314 314 313 314 313 313 314 314 315 315 315 315 312 312 312 309 308 307 307 307 307 308 307
322 322 322 321 321 320 321 321 321 320 319 318 317 317 318 318 317 317 316 317 317 316 316 316 317 316 315 315 316 315 314 314 315 314 314 315 315 314 313 313 314 315 315 315 315 315 315 315 315 315 315 315 313 312 312 310 307 307 308 307 307 308 308
323 322 322 321 320 320 321 321 321 320 319 318 317 317 318 318 318 318 318 318 318 318 317 317 317 316 315 316 316 315 314 314 315 314 313 314 314 314 313 312 312 314 315 315 315 316 315 315 315 315 315 314 313 312 312 311 309 308 308 308 308 308 309
323 321 322 321 321 321 320 320 320 319 319 319 318 317 318 318 318 318 318 318 318 318 318 318 318 316 315 316 317 317 316 315 314 315 314 314 315 315 316 314 313 313 314 315 316 316 316 315 315 315 315 315 314 313 312 312 311 309 308 308 309 310 311
323 322 322 321 322 322 321 320 320 318 318 318 318 318 318 317 318 318 317 318 318 318 318 319 319 318 316 317 318 317 317 316 316 318 317 317 316 316 317 317 315 315 314 314 316 316 316 315 315 316 315 315 315 314 313 313 312 311 310 309 310 311 312
323 322 323 322 323 323 322 321 319 319 320 318 317 318 318 317 317 318 317 318 317 318 318 318 319 319 319 319 319 319 319 318 318 319 319 319 318 318 318 318 317 316 316 315 315 316 315 315 315 316 316 315 315 315 314 315 314 313 312 311 311 312 313
323 321 322 322 322 321 320 320 320 321 322 320 317 318 318 316 316 317 317 318 318 318 318 318 318 319 319 319 320 320 320 320 320 321 321 320 320 319 319 319 318 317 317 317 317 316 316 314 314 315 315 315 315 315 314 315 315 314 314 313 313 313 313
325 321 320 321 320 319 319 320 320 321 322 321 318 319 319 317 316 317 317 317 317 318 318 318 319 319 320 321 321 321 321 321 321 321 321 321 321 320 320 320 319 319 318 318 318 317 316 315 314 313 313 314 314 314 314 314 314 314 314 315 314 314 313
326 323 321 321 320 318 318 320 321 320 321 321 319 319 319 318 317 317 317 317 317 318 318 318 319 320 320 321 322 322 321 322 322 322 321 321 321 321 321 320 320 320 319 319 318 318 317 316 315 313 312 312 312 313 314 314 314 314 314 314 314 314 314
325 324 324 323 321 319 318 320 321 321 321 321 321 320 320 319 319 318 318 319 318 318 318 319 319 318 320 321 321 321 321 321 321 321 321 320 320 320 321 320 320 320 320 320 319 318 317 317 316 314 313 312 312 313 313 313 313 313 313 313 313 313 313
324 324 323 323 322 321 321 321 322 322 322 322 322 321 320 320 319 319 319 320 320 319 319 319 319 319 319 319 320 320 321 321 322 321 320 319 319 319 320 320 320 320 320 320 319 318 318 317 316 315 314 314 314 313 313 313 313 313 313 313 312 312 312
323 323 323 322 322 321 322 323 323 322 323 323 322 322 321 320 320 319 319 319 319 320 320 320 320 319 319 319 319 321 322 322 322 322 321 320 319 319 319 319 319 320 320 320 319 319 318 317 317 315 315 314 314 313 313 313 313 313 313 313 312 311 311
322 322 321 321 321 321 323 324 324 323 323 323 323 323 322 321 321 320 320 320 319 319 319 320 319 320 320 319 319 321 321 321 321 321 321 320 319 319 319 319 318 319 319 319 319 319 318 318 317 316 315 314 313 312 312 312 312 312 312 312 312 311 311
321 321 321 321 321 322 323 324 324 324 324 323 323 323 323 322 322 321 320 320 320 319 319 319 319 320 321 320 319 320 320 320 320 320 320 320 318 318 318 318 319 318 319 319 319 319 319 318 317 316 315 314 313 312 311 311 311 310 311 311 311 310 310
316 318 320 320 322 323 323 323 324 323 323 323 323 322 322 322 322 322 321 321 320 320 319 319 320 321 321 320 319 319 319 319 320 320 319 318 317 317 317 318 318 319 318 319 319 319 319 319 318 317 315 314 313 313 311 311 310 310 310 309 309 309 309
311 312 314 315 317 319 321 323 323 323 322 321 321 321 321 321 321 321 321 321 321 322 321 321 322 322 321 320 320 319 319 319 320 319 318 317 317 316 317 317 318 318 318 318 319 319 319 318 317 316 315 314 313 312 311 310 310 309 309 308 307 308 308
308 309 310 311 312 313 315 318 320 322 322 320 320 319 318 318 319 319 320 320 320 321 322 323 323 323 322 321 321 320 320 320 320 318 318 317 317 316 317 317 317 317 318 318 319 319 319 318 317 315 314 313 312 310 309 309 308 307 307 306 306 306 307
306 307 308 308 309 310 311 312 313 316 317 317 318 318 318 317 317 317 319 319 319 320 321 322 323 322 322 321 321 320 320 319 318 318 318 317 316 316 316 316 316 316 316 318 319 319 318 317 316 315 313 312 310 308 308 308 308 307 306 305 305 305 305
304 305 305 305 307 308 309 309 310 311 311 312 314 316 318 319 318 317 317 318 318 319 320 321 321 321 321 321 321 320 320 319 319 319 319 317 316 315 315 315 316 315 315 318 319 318 316 316 315 314 312 311 309 308 309 309 308 307 305 304 304 304 304
303 303 303 304 304 305 305 306 307 308 309 310 311 312 314 316 318 318 317 316 316 317 319 320 320 320 320 319 319 319 319 318 319 319 319 317 316 315 314 315 316 316 317 318 318 316 315 315 314 313 311 310 309 309 310 309 308 306 305 305 304 304 303
302 302 302 303 303 303 304 304 304 305 306 308 309 310 311 312 314 315 316 317 316 316 316 317 317 318 318 317 316 317 318 318 318 318 317 315 315 314 312 313 316 317 317 317 316 315 315 314 313 312 310 310 310 310 310 309 307 306 305 304 303 302 302
301 301 301 301 302 302 302 303 303 304 304 306 306 307 308 309 310 311 313 315 316 316 316 315 314 315 315 315 315 316 318 318 317 316 314 313 313 312 310 310 313 313 313 314 314 313 313 313 312 311 310 309 309 309 308 307 306 305 303 303 302 301 301
300 301 301 301 301 301 301 302 302 303 303 304 305 305 306 307 308 309 311 312 313 315 316 316 314 314 313 313 313 315 317 318 316 315 314 313 312 311 309 309 310 310 309 309 311 311 311 310 310 309 308 307 307 306 305 304 304 303 302 302 301 301 300
300 300 300 300 300 300 301 301 301 302 301 302 303 304 305 306 307 308 309 310 311 313 315 316 316 315 314 313 312 313 315 317 316 314 313 313 313 311 309 308 308 308 307 307 308 309 309 308 307 306 306 305 304 303 302 302 302 302 301 301 300 299 299
Wind_Speed
20 18 17 17 18 17 14 13 13 10 9 9 10 11 12 11 10 11 9 7 9 11 9 7 7 8 8 7 6 5 4 4 5 6 7 7 7 6 5 7 9 9 10 12 13 11 6 1 2 4 7 10 11 10 10 10 11 11 12 12 12 11 10
21 19 18 18 17 14 13 14 14 12 11 12 12 12 12 10 10 11 11 9 11 12 9 7 7 8 9 9 8 8 7 7 6 6 6 6 7 8 8 8 8 8 9 11 15 16 10 5 2 0 5 10 11 12 13 13 12 13 14 14 12 11 10
22 19 18 17 15 14 15 15 14 13 12 12 13 12 12 11 11 10 11 12 12 11 10 10 9 9 10 10 10 10 10 10 9 9 8 7 8 9 9 9 10 11 10 8 11 16 12 7 5 4 6 9 9 11 15 16 15 14 13 12 12 11 11
22 20 19 18 16 15 16 16 14 13 11 10 11 12 12 13 12 10 10 12 13 12 13 12 11 11 12 12 12 13 12 12 12 11 11 11 11 11 10 9 12 11 10 9 12 15 12 8 8 6 7 11 11 12 15 17 17 15 13 13 13 13 13
21 21 21 19 17 15 15 15 15 14 12 10 9 9 12 13 13 12 10 12 14 14 13 12 11 11 13 13 13 14 14 13 13 12 11 11 11 12 11 10 11 11 11 13 15 18 18 17 14 9 9 12 9 10 16 17 15 14 14 14 14 13 13
21 21 20 19 16 15 15 17 16 14 13 12 11 10 11 12 13 13 11 12 14 13 12 12 11 11 12 13 13 14 14 14 14 13 13 12 12 12 11 10 10 11 12 14 17 20 20 20 17 12 12 13 9 10 15 15 14 13 13 14 14 12 11
21 20 19 18 17 15 16 17 15 14 15 15 14 13 12 13 12 12 12 13 13 13 13 13 12 12 12 12 13 14 14 14 15 15 15 15 16 16 15 15 14 12 12 13 17 19 18 18 17 13 14 13 12 13 14 15 17 14 11 12 11 10 9
20 19 19 17 17 16 15 15 15 16 17 16 15 13 13 14 14 13 13 14 13 14 15 14 12 12 12 13 14 14 15 15 15 17 16 16 16 16 16 18 18 17 14 13 13 13 15 16 14 15 17 12 8 9 9 12 16 15 16 14 9 7 8
19 18 19 17 16 15 14 14 17 17 17 17 16 14 14 15 15 15 15 15 14 13 14 14 14 13 13 14 14 15 15 15 15 17 17 17 16 14 14 16 17 17 16 15 15 13 13 13 11 17 21 15 9 6 5 7 9 12 17 16 8 5 7
18 18 18 17 16 15 14 15 18 18 17 17 16 15 15 15 15 15 16 15 14 13 13 14 14 13 13 14 15 16 15 14 15 17 17 16 15 14 14 14 14 14 14 14 15 15 15 15 13 14 18 18 16 10 4 4 5 7 13 14 10 8 6
18 17 17 17 16 16 15 17 19 18 17 17 15 15 15 15 15 15 15 15 15 15 14 14 15 14 15 16 16 16 15 15 16 17 16 16 15 14 14 14 14 13 13 14 14 14 15 15 14 13 11 19 23 18 11 7 4 6 12 12 11 11 9
17 16 16 17 16 16 16 18 19 18 17 16 16 16 15 14 15 15 15 15 15 16 15 15 16 16 16 16 15 15 16 16 17 17 16 15 14 14 13 13 13 13 13 14 15 15 15 14 13 14 12 19 25 24 21 14 5 5 12 13 12 12 11
17 16 16 18 17 15 16 17 17 17 16 16 17 16 15 14 15 15 14 15 16 16 15 16 16 16 16 16 16 16 15 14 15 15 15 13 13 13 14 13 12 12 11 11 12 13 13 14 14 15 14 19 23 23 24 20 10 7 11 13 14 13 12
16 15 16 17 16 15 15 16 16 15 16 16 17 16 15 14 14 14 15 16 16 16 15 15 15 15 15 15 14 14 13 13 14 14 14 13 12 12 13 13 12 10 9 9 10 10 11 14 15 16 15 17 20 18 17 19 16 10 10 12 13 14 13
17 15 16 16 16 15 15 16 16 15 16 16 16 16 15 14 14 14 15 15 14 14 14 13 14 15 15 13 12 14 15 14 14 13 13 13 12 10 10 10 10 9 9 11 11 11 12 15 15 17 17 16 17 14 13 17 17 13 11 12 12 12 11
16 15 16 15 15 15 15 16 15 15 16 15 14 16 15 14 14 14 14 14 13 13 14 13 12 14 15 14 12 13 14 13 12 12 12 12 11 9 8 9 9 9 9 10 11 11 13 14 12 15 17 16 15 14 13 14 15 15 14 12 11 10 10
15 16 16 14 14 15 15 15 15 15 16 14 14 16 15 14 14 14 15 14 13 13 13 13 12 11 14 14 12 11 11 11 10 10 10 12 11 9 8 7 7 7 8 8 8 8 10 11 11 12 13 13 14 14 14 13 14 16 15 13 11 9 10
11 14 15 16 15 16 16 15 14 15 14 14 14 15 15 14 13 14 15 14 14 13 13 13 11 10 12 12 10 10 10 10 10 8 8 11 11 10 8 7 7 7 7 6 5 6 8 10 11 13 13 12 13 15 14 12 12 15 16 16 14 10 9
12 11 11 16 17 16 15 14 14 14 13 13 13 13 14 14 13 14 15 14 14 14 13 12 11 10 10 10 9 9 9 9 9 6 6 8 9 9 8 8 8 8 8 7 5 6 7 9 12 14 14 12 12 13 13 11 10 12 16 17 15 11 10
16 14 13 15 16 15 15 14 14 14 12 13 13 12 14 15 13 13 14 13 14 15 13 13 12 12 11 10 9 9 9 10 10 7 6 6 6 6 6 6 8 9 9 8 7 7 7 8 11 13 12 11 10 10 8 8 9 9 10 13 12 10 9
18 17 17 17 17 17 16 14 14 14 12 13 13 11 12 14 13 13 13 13 14 16 15 15 14 14 13 12 10 9 10 12 12 10 9 7 7 7 8 7 8 9 9 8 7 8 8 7 9 10 11 10 8 6 4 5 6 5 5 6 9 10 10
18 18 18 18 19 20 17 14 13 13 12 12 13 13 12 13 12 12 12 12 14 16 17 16 16 15 14 14 12 11 11 12 12 11 10 9 8 8 9 10 10 10 10 8 7 8 9 7 7 9 10 9 6 4 4 5 5 2 4 6 5 6 9
15 17 17 15 16 18 18 14 11 11 10 10 13 14 14 13 13 11 11 11 11 12 14 14 15 14 14 14 13 12 11 12 12 12 11 11 11 11 11 12 12 11 11 10 8 9 9 8 7 7 8 8 6 5 6 7 4 2 5 7 6 7 10
11 13 15 13 12 13 15 14 12 11 10 9 11 12 13 13 13 11 10 10 10 11 11 10 11 12 12 13 13 12 11 12 13 14 14 13 14 15 14 14 14 13 13 12 10 10 11 10 9 8 8 7 7 6 8 9 6 4 5 7 7 8 10
6 8 10 10 11 11 12 13 13 12 11 10 10 10 10 11 12 11 10 11 12 13 13 12 11 11 12 13 14 13 12 12 13 14 14 14 15 15 15 15 16 15 15 14 13 12 13 12 11 10 9 8 8 8 9 8 7 6 5 6 6 6 8
11 12 13 13 15 14 11 11 11 11 11 12 12 12 13 13 14 13 12 12 13 14 15 16 14 12 13 15 16 15 13 13 13 13 13 14 15 16 16 16 17 17 16 16 15 14 14 13 13 12 11 10 9 9 9 8 7 6 5 6 5 5 6
12 14 16 15 13 9 7 7 8 8 9 11 11 12 14 15 16 16 14 13 14 14 16 17 16 14 14 16 18 17 15 15 15 14 15 16 16 17 17 17 18 18 16 17 17 17 14 13 13 13 12 11 11 10 10 9 7 6 6 6 6 5 5
11 8 8 8 7 6 7 7 7 7 8 9 9 10 11 13 14 15 15 14 14 16 17 18 17 15 15 16 18 19 17 16 16 16 16 16 15 15 16 16 17 18 17 17 17 17 15 13 12 11 11 11 11 11 11 9 8 8 7 7 6 5 4
20 18 16 12 8 3 5 7 7 7 7 7 9 10 11 12 13 13 14 14 14 15 16 16 16 16 16 16 17 18 18 17 16 16 16 14 13 12 13 15 16 17 17 16 16 16 15 13 11 10 10 10 10 10 9 9 8 8 7 6 6 5 5
21 19 18 16 15 12 6 1 3 5 6 6 8 9 10 11 12 12 13 14 14 15 16 16 16 17 17 17 18 18 18 17 17 16 14 13 12 12 13 14 14 15 15 15 15 16 14 12 11 9 8 10 10 9 8 7 7 7 7 6 6 5 5
20 18 17 16 15 14 12 10 8 5 5 7 9 12 12 11 11 13 14 14 14 14 16 17 18 19 19 19 19 18 17 16 17 16 13 12 12 12 13 13 13 14 15 15 15 16 14 12 11 9 9 11 12 10 9 8 7 7 8 7 6 5 5
16 17 17 16 15 15 14 13 12 11 10 11 11 12 14 16 14 13 14 15 14 13 15 16 17 18 19 19 19 18 16 17 17 15 13 13 13 13 13 13 12 14 16 16 17 16 13 12 12 10 10 13 13 10 9 7 6 7 7 7 5 4 3
15 16 16 16 16 15 15 15 15 15 14 14 15 14 13 14 17 18 17 17 16 16 16 17 18 19 19 18 18 18 17 18 18 15 14 16 17 16 14 12 12 13 17 19 19 17 15 13 12 11 11 13 13 11 9 8 7 7 6 5 3 2 3
16 16 17 17 17 16 16 16 16 17 17 17 18 17 16 15 15 17 19 21 21 19 19 19 19 19 18 17 17 17 19 20 16 14 18 21 21 20 18 15 15 16 19 21 20 18 17 15 13 13 14 14 13 11 10 9 9 8 6 3 1 1 2
17 18 18 19 19 19 18 17 17 17 18 19 20 21 21 20 20 19 18 20 23 23 23 22 20 18 16 16 17 16 19 21 15 13 20 24 22 21 19 18 19 19 18 18 19 18 17 15 14 14 14 13 12 11 10 10 9 7 4 2 1 0 1
19 19 19 20 21 22 21 20 19 18 19 19 20 21 22 23 24 24 22 20 20 23 27 26 23 20 18 18 18 18 20 21 16 15 21 24 21 20 19 17 18 18 17 17 17 16 16 15 14 14 15 14 12 11 9 7 6 4 3 2 1 1 3
20 20 21 21 21 22 22 22 21 21 21 22 21 20 21 22 24 25 26 25 22 19 24 25 23 23 20 19 20 20 21 22 18 17 21 23 21 20 19 17 17 17 17 17 16 15 16 15 14 14 13 12 9 7 6 5 4 4 3 2 1 1 3
Wind_Direction
140 137 135 135 136 136 136 138 138 135 131 131 122 117 123 125 119 116 118 133 131 125 126 117 121 134 127 121 126 125 125 142 160 151 145 154 148 128 115 114 104 95 105 123 136 139 128 91 27 67 98 113 115 112 112 118 124 123 121 121 121 118 113
140 136 134 133 134 134 139 143 141 135 130 128 126 128 126 123 129 117 100 120 139 132 130 128 119 123 125 126 123 114 108 118 138 141 135 141 137 124 121 118 111 114 115 118 131 135 132 133 143 115 120 116 112 114 116 117 116 113 116 120 118 112 104
141 140 137 136 137 138 138 138 135 129 126 119 112 121 133 126 129 126 98 103 127 125 111 110 107 107 114 116 114 111 105 106 119 124 120 126 127 121 124 133 136 131 123 120 131 134 133 126 127 152 149 135 124 122 123 120 116 111 111 114 110 103 99
145 145 142 142 144 142 134 129 130 132 133 133 112 102 121 130 127 127 109 102 115 117 107 105 104 104 107 107 106 104 100 100 107 108 107 113 117 113 110 125 140 141 138 142 143 142 142 135 132 145 157 149 136 135 135 124 115 111 108 107 104 100 99
150 150 148 148 149 144 138 135 134 131 130 144 144 112 111 124 127 127 119 108 111 115 114 113 113 113 110 109 109 107 105 104 104 103 104 110 112 110 107 107 116 122 128 138 143 146 150 147 142 143 158 153 135 140 145 132 121 118 111 107 103 100 100
154 154 151 151 151 146 146 145 138 135 134 139 147 135 119 123 129 132 128 113 106 110 118 118 116 117 114 111 111 111 111 109 103 99 98 102 102 100 100 99 102 106 109 121 135 143 149 150 147 143 153 154 144 154 159 148 136 127 115 107 100 95 96
157 155 152 153 154 152 153 152 146 142 140 138 138 137 131 128 130 135 137 127 109 102 116 123 117 115 113 111 111 111 112 108 101 94 93 98 98 92 90 92 98 102 102 117 134 143 149 154 156 155 152 153 154 161 166 157 145 137 130 120 101 86 87
159 156 154 154 157 156 154 153 154 150 143 140 140 140 139 134 131 133 137 134 119 103 111 121 119 117 113 110 110 109 109 108 98 89 90 97 97 91 89 91 94 93 94 108 122 137 154 161 169 166 153 149 156 159 149 141 140 140 142 136 112 85 89
160 156 155 157 158 157 155 156 154 149 143 141 139 139 142 140 136 133 130 129 125 115 114 118 119 121 119 115 113 108 105 106 99 89 88 93 94 92 90 91 94 90 90 97 95 100 130 146 160 171 169 162 146 134 120 122 129 137 140 136 122 100 96
162 160 159 159 158 155 155 157 152 146 144 142 140 137 138 138 138 137 133 131 132 128 124 124 128 131 128 124 119 112 109 110 106 96 91 92 94 94 90 87 90 90 89 92 87 86 99 104 108 141 173 176 154 134 125 130 129 143 148 142 140 145 126
166 164 163 160 157 153 154 154 150 147 146 143 141 139 139 140 141 142 140 138 137 133 130 129 130 131 127 122 119 116 115 116 113 106 100 99 100 98 92 87 87 88 87 85 80 81 88 89 87 91 132 165 156 143 136 134 127 146 155 152 148 156 158
171 168 164 161 158 152 151 151 148 147 145 143 142 142 144 146 145 144 142 141 140 137 136 135 131 129 127 125 124 124 121 118 116 113 111 111 111 109 102 96 93 89 89 87 84 83 83 87 86 78 104 148 152 145 137 129 115 139 153 160 155 150 154
174 171 166 162 159 152 148 149 149 147 144 145 147 148 149 147 144 144 145 146 144 141 140 139 135 132 133 133 129 128 127 123 119 118 117 115 117 120 114 109 104 99 98 97 92 87 83 90 92 84 104 136 141 141 136 125 115 123 140 152 156 156 158
177 172 167 161 157 155 151 150 151 148 147 150 153 153 152 150 149 149 148 147 146 145 145 143 141 139 139 140 138 136 134 130 127 127 125 118 118 123 120 117 116 110 104 99 90 85 90 97 97 93 108 131 135 140 142 131 123 123 131 144 152 159 164
180 171 164 161 159 158 157 156 155 151 152 157 158 157 156 155 155 153 150 150 150 152 151 148 150 151 148 146 147 148 145 138 135 136 136 132 129 128 126 128 128 118 108 104 94 94 107 111 104 102 112 130 136 141 149 141 136 137 144 152 158 162 168
177 167 160 159 160 162 161 161 161 159 160 162 160 161 163 161 162 161 158 158 159 157 154 151 155 160 159 152 143 145 150 147 143 144 146 147 144 138 132 133 137 132 123 114 99 98 117 125 120 115 119 127 134 141 147 144 144 153 156 159 167 172 174
168 162 158 159 163 165 166 168 169 167 166 166 166 168 169 166 168 171 170 167 165 163 161 161 167 169 163 157 148 145 151 150 144 145 152 154 150 142 132 126 133 140 137 123 103 104 122 131 134 131 128 127 126 133 147 149 149 158 162 165 171 171 167
142 152 160 169 173 172 172 176 175 170 170 171 173 180 178 170 173 180 179 176 172 171 172 172 176 173 162 160 160 157 156 156 151 147 149 153 153 148 143 142 143 143 146 137 121 124 127 129 140 143 141 137 125 126 139 148 153 162 166 167 171 171 167
140 148 164 177 183 183 181 180 175 173 177 178 178 186 183 174 179 189 187 184 180 180 186 185 182 177 169 169 172 169 166 163 162 161 155 153 154 149 145 152 158 158 162 162 155 149 134 129 142 147 144 143 135 130 128 119 126 152 163 165 170 172 172
166 166 171 177 182 184 182 181 180 179 181 182 183 191 188 181 186 193 192 192 190 190 196 193 185 185 183 180 180 177 174 171 171 175 170 161 161 164 157 156 162 167 173 178 176 171 155 137 140 145 144 142 138 134 126 110 111 124 144 163 172 169 171
178 180 178 179 180 178 178 182 187 191 194 193 193 196 190 185 192 199 198 200 201 200 202 196 189 189 186 181 182 180 177 183 186 180 174 170 169 182 193 192 183 177 180 190 196 194 187 166 154 154 154 154 150 140 133 135 135 110 94 139 167 172 180
185 188 184 185 184 179 182 186 188 197 205 198 195 198 194 191 200 209 209 210 209 206 203 196 190 190 186 182 184 185 188 201 203 194 193 197 192 195 205 207 205 198 192 195 205 210 210 207 195 183 176 176 179 172 159 153 156 143 90 94 116 151 164
192 198 199 201 190 181 187 192 191 198 199 187 186 193 197 200 206 213 215 216 214 208 204 199 196 199 199 197 199 202 210 222 226 222 220 223 224 222 220 219 216 213 205 199 202 214 219 224 223 209 199 199 203 198 178 166 167 162 112 93 86 107 124
206 210 213 215 199 191 201 204 202 207 204 192 189 190 194 201 208 217 222 222 221 218 214 211 210 214 217 217 219 221 222 227 234 238 236 237 236 231 230 234 232 226 218 207 202 212 220 224 224 218 210 204 200 192 183 180 187 181 130 107 104 108 115
208 206 209 208 196 200 211 208 210 221 221 215 213 211 212 214 218 228 235 234 233 233 234 235 234 234 235 232 229 226 224 224 229 234 235 237 240 238 239 244 242 235 227 216 208 210 215 217 216 215 210 200 191 185 184 184 187 186 166 142 128 118 124
184 183 184 186 187 193 200 203 214 232 237 238 240 240 241 241 240 243 245 243 242 240 241 245 247 248 245 240 233 228 227 231 233 233 235 238 243 246 247 248 246 240 230 218 211 209 214 218 214 212 212 205 197 192 190 188 184 181 179 175 163 144 144
170 173 176 176 178 181 185 201 222 235 240 246 251 251 251 252 252 252 252 250 249 248 247 248 251 252 245 240 236 232 232 237 240 242 247 251 254 254 252 248 246 240 227 216 211 209 214 219 214 212 213 208 202 203 206 207 205 203 203 205 206 187 166
65 86 122 143 156 170 181 197 218 236 249 258 262 265 264 262 260 259 257 253 250 252 253 251 251 253 248 242 239 238 237 239 243 249 254 256 256 253 250 246 243 236 225 215 211 209 210 212 207 203 202 200 202 208 213 219 225 231 233 230 226 209 187
35 39 43 53 63 104 192 204 214 232 255 269 272 276 277 274 272 269 264 257 248 246 250 252 251 251 251 249 245 242 240 242 244 247 248 248 247 247 245 241 235 230 223 213 207 207 209 208 201 192 189 194 200 206 212 220 226 230 230 222 218 213 207
23 23 26 30 31 30 30 26 231 237 252 267 269 277 285 285 282 277 273 268 257 245 242 246 249 252 253 254 251 245 242 241 240 240 238 238 237 232 228 227 226 225 221 211 205 206 208 205 197 190 189 193 195 195 200 207 210 211 212 208 207 217 231
15 14 15 13 9 8 12 14 6 341 312 292 274 263 262 268 277 278 276 273 265 252 244 244 249 253 254 253 251 248 243 236 231 230 229 225 219 213 213 216 219 220 217 211 206 206 205 202 201 200 198 192 189 189 191 194 199 204 206 208 213 225 248
6 5 4 1 356 351 349 349 346 342 337 328 311 285 260 247 248 260 269 272 268 259 250 246 247 250 253 252 248 246 243 234 225 219 216 210 204 203 208 210 213 218 217 208 202 201 199 199 204 205 199 193 192 197 200 195 195 200 203 207 216 237 280
360 358 354 349 346 343 338 333 327 324 320 318 319 314 292 262 248 246 249 257 263 262 254 250 249 252 256 254 248 243 238 229 219 212 209 205 198 191 187 187 191 201 203 197 192 191 191 193 200 198 193 196 199 204 206 197 184 183 188 194 212 287 324
350 350 350 347 343 339 335 331 325 318 311 307 306 307 306 299 285 267 251 245 248 252 250 250 252 253 252 248 242 238 230 220 212 208 204 199 194 188 182 178 176 178 184 186 187 189 191 192 195 192 192 200 205 205 201 190 173 168 172 180 205 342 348
347 343 341 341 341 340 337 334 329 323 314 305 301 299 299 301 302 298 278 253 243 243 245 247 246 243 241 238 234 229 221 212 205 202 196 189 188 189 186 181 179 177 181 185 187 189 190 187 185 181 182 186 184 174 171 168 164 167 173 168 143 85 344
354 350 345 341 339 338 337 335 334 334 330 320 307 298 296 295 297 300 298 285 269 252 242 239 237 232 230 229 228 227 221 213 204 198 197 193 190 188 184 182 182 180 180 182 181 178 175 171 165 159 157 158 155 153 157 164 172 185 188 178 194 295 331
353 352 348 344 340 337 336 333 331 332 334 333 326 314 305 300 297 297 296 295 292 266 240 234 234 232 229 227 226 229 228 222 210 196 198 204 202 191 184 188 189 182 177 177 175 171 169 164 156 151 150 151 151 153 158 161 167 177 181 185 189 84 65